Weather in Nagutskoye

Russia / Stavropol Krai     44°26′28″N   42°52′11″E
temp.,
°C
wind,
m/s
gust,
m/s
humid.,
%
clouds,
%
prec.,
mm/h
press.,
hPa
HPBL,
m
13 june, sun
sun1300:00+16nw2394100 2.6 101243
03:00+15sw1198100 11.6 101315
06:00+16w3597100 6.4 1013216
09:00+16nw3495100 8.4 1013342
12:00+19nne1183100 0.4 1012573
15:00+20ese3380100 3.9 1012683
18:00+19ese2384100 0.4 1012405
21:00+16se2294100 0.8 101322
14 june, mon
mon1400:00+16ssw1194100 0.2 101211
03:00+15sw119416 0.2 101310
06:00+16wsw11894 0.0 101368
09:00+20ese23769 0.0 1012720
12:00+23e446673 0.0 10111309
15:00+24e456497 0.1 10101478
18:00+22e357548 0.1 1010194
21:00+19e358341 0.1 101062
15 june, tue
tue1500:00+17e349113 0.0 100969
03:00+17e3489100 0.0 100875
06:00+18ene278895 1.0 1008224
09:00+21e457877 1.8 1008515
12:00+24ese2368100 0.1 10091227
15:00+25ese336877 0.1 1009766
18:00+25se23730 0.1 1009385
21:00+20se01830 0.1 101011
16 june, wed
wed1600:00+18wnw119088 0.1 100911
03:00+19ene118937 0.5 100911
06:00+19ese13880 0.5 1009101
09:00+23nne127644 1.1 1010713
12:00+23w537995 0.6 1010476
15:00+19w668967 0.8 1012416
18:00+19wnw568634 0.0 1012439
21:00+17wnw369696 0.0 1013196
17 june, thu
thu1700:00+17nw3594100 0.1 1012265
03:00+16wnw2395100 0.1 1011161
06:00+17nw2294100 0.0 1010120
09:00+20nw228690 0.0 1009532
12:00+22n3380100 0.1 1009793
15:00+21nw4685100 0.1 1010470
18:00+21wnw7118991 0.0 1011560
21:00+17w7149481 0.2 1014512